星链-3756 (STARLINK-3756 )

导读 | 豆包AI

STARLINK-3756是美国太空探索技术公司(SpaceX)星链(Starlink)星座中的一颗卫星,于2022年4月21日发射升空。星链项目旨在构建全球卫星互联网星座,为全球提供高速互联网接入服务,该卫星入轨后承担着拓展星座覆盖范围、提升网络服务能力的任务,属于低轨卫星,助力星链完成全球通信网络布局。

Basic Information
目录编号:
52309
目录名称:
STARLINK-3756
国际标识:
2022-041BA
轨道中心:
EARTH
卫星名称:
星链-3756
卫星全名:
星链-3756 (STARLINK-3756 )
卫星状态:
在轨 (已飞行1424 天)
发射日期:
2022-04-21 UTC
国别 :
美国 (US)
星等 :
--
Orbit Information
数据来源 国际轨道数据 AOE轨道数据
星历时间 2026-03-14T17:44:19+0800
15小时前
查看轨道信息
2026-03-11T06:00:00+0800
4天前
查看轨道信息
半长轴 6917.888km 6917.774km
偏心率 0.0001285 0.0000689
轨道倾角 53.217° 53.220°
近地点辐角 85.514° 175.236°
升交点赤经 67.947° 83.609°
平近点角 274.600° 302.413°
近地点 538.862km 539.16km
远地点 540.64km 540.114km
周期 95.438分钟 95.435分钟
每日圈数 15.088377 15.08875
Detailed Information
固有亮度:
5
最大亮度:
2.5
卫星平台:
Starlink v1.5
覆盖范围:
全球
运营商:
太空探索技术公司
运营商所在国:
美国
制造商(研发单位):
太空探索技术公司
制造商所在国:
美国
使用方式:
暂无
Satellite Introduction
星链(Starlink)计划是由太空探索技术公司(SpaceX)提出的一个巨型低轨卫星互联网星座项目,计划在2019年至2024年间在太空搭建由约1.2万颗卫星组成的“星链”网络,其中1584颗将部署在地球上空550千米处的近地轨道,并从2020年开始工作。该卫星仍在工作。
2D Orbit Map
3D Orbit Map
Orbit Altitude Analysis Chart
Orbit Inclination Analysis Chart
Orbit Comprehensive Analysis Chart
View Comprehensive Chart